Location: Clegg Observatory
(38.9178°N, 78.6069°W)
Time: 20:50:04
(UTC-04:00)

Daily predictions for brighter satellites

Satellite Brightness Start Highest point End
(mag) Time Altitude Azimuth Time Altitude Azimuth Time Altitude Azimuth
Resurs 01 Rocket 2.1 20:59:16 10° S 21:03:39 64° W 21:08:04 10° NNW
NOSS 3-2 (C) 3.9 20:59:40 10° SW 21:05:36 71° NW 21:12:10 10° NNE
Tiangong 2 1.2 21:02:36 10° WNW 21:05:48 68° SSW 21:08:59 10° ESE
Cosmos 2082 Rocket 4.0 21:01:52 10° NW 21:06:45 31° WSW 21:11:40 10° SSW
Cosmos 1900 4.5 21:01:41 10° NNW 21:06:52 71° ENE 21:11:59 10° SE
Meteor 2-3 Rocket 3.7 21:04:51 10° S 21:10:33 75° E 21:16:13 10° NNE
CZ-4B DEB 3.9 21:09:39 10° SE 21:12:04 24° ENE 21:14:29 10° NNE
Cosmos 2346 Rocket 4.4 21:07:48 10° S 21:13:48 74° E 21:19:53 10° N
Cosmos 1825 3.5 21:11:14 10° SE 21:14:08 21° E 21:17:01 10° NE
Meteor 1-26 Rocket 4.3 21:09:28 10° N 21:15:10 89° W 21:20:56 10° S
Okean 1-7 3.9 21:11:31 10° NNE 21:15:30 32° ENE 21:19:23 10° SE
CENTAUR R/B 2.6 21:10:55 10° S 21:16:32 49° ESE 21:22:53 10° NE
Cosmos 2344 4.1 21:13:31 10° S 21:20:19 35° ESE 21:27:24 10° NE
Cosmos 1782 3.8 21:17:45 10° NNE 21:21:16 29° ENE 21:24:10 13° SE
Shenzhou-11 Module 3.0 21:19:03 10° W 21:21:55 37° SSW 21:24:15 14° SE
Aureole 1 4.2 21:20:20 10° SSW 21:23:20 89° ESE 21:26:46 10° NNE
Envisat 3.2 21:18:30 10° S 21:23:34 75° WSW 21:28:39 10° NNW
Cosmos 372 Rocket 4.5 21:19:17 10° SSE 21:23:57 36° ESE 21:28:37 10° NE
SL-19 R/B 4.4 21:20:01 10° SSE 21:25:46 85° ENE 21:31:57 10° NNW
H-2A ROCKET BODY 3.1 21:27:10 10° SW 21:29:26 19° SSE 21:32:06 14° SE
Cosmos 1703 Rocket 3.5 21:28:08 10° N 21:32:34 78° E 21:36:55 10° S
DNEPR-1 R/B 3.8 21:27:31 10° SSW 21:32:52 62° ESE 21:37:24 10° NE
Cosmos 1943 Rocket 2.3 21:27:39 10° S 21:33:03 51° ESE 21:38:25 10° NNE
Cosmos 1892 3.9 21:30:00 10° SSW 21:33:41 45° W 21:37:23 10° N
Cosmos 1125 Rocket 3.5 21:33:52 10° S 21:39:03 63° ESE 21:44:12 10° NNE
Cosmos 1862 4.4 21:38:56 19° SE 21:40:44 26° E 21:44:03 10° NNE
Cosmos 1733 Rocket 4.3 21:40:35 18° ESE 21:42:06 22° E 21:45:26 10° NE
Helios 1B rocket 2.5 21:39:13 10° N 21:43:20 82° WNW 21:47:25 10° SSW
Cosmos 2084 3.4 21:43:35 10° NW 21:47:25 69° WSW 21:50:04 20° SSE
Cosmos 2263 4.2 21:42:53 10° SSW 21:48:39 89° ESE 21:54:25 10° NNE
NOAA 11 4.3 21:44:20 15° SSE 21:48:47 63° ENE 21:54:13 10° N
Cosmos 1869 Rocket 3.7 21:45:34 10° S 21:49:52 77° W 21:54:16 10° N
Cosmos 1340 3.3 21:46:23 10° N 21:49:57 38° ENE 21:51:33 25° SE
Lacrosse 4 Rocket 2.3 21:48:06 10° NNW 21:52:20 38° ENE 21:54:34 23° ESE
SAR-Lupe-4 3.5 21:52:14 19° SSE 21:54:40 88° WSW 21:58:16 10° NNW
Cosmos 2369 Rocket 3.0 21:52:59 10° SW 21:58:31 54° WNW 22:04:06 10° NNE
SL-08 RB Rocket 4.3 22:00:56 26° SE 22:03:06 42° ENE 22:07:30 10° N
YAOGAN 6 3.8 22:00:37 10° S 22:04:04 40° W 22:07:34 10° NNW
Cosmos 158 Rocket 3.7 22:02:36 10° NNW 22:07:31 84° ENE 22:10:13 27° SSE
Cosmos 1606 2.7 22:04:21 10° N 22:08:08 79° W 22:10:13 25° S
Cosmos 1833 4.4 22:03:04 10° NNW 22:08:45 57° ENE 22:11:43 28° SE
Cosmos 2221 Rocket 4.2 22:07:23 10° NNW 22:11:44 54° W 22:15:21 14° SSW
H-2A R/B 2.6 22:11:04 28° SE 22:13:33 46° ENE 22:18:37 10° N
COSMOS 2455 4.4 22:08:51 10° WSW 22:14:23 37° NW 22:19:57 10° NNE
MetOp-B 4.1 22:14:45 23° SSE 22:18:08 88° WSW 22:23:31 10° NNW
GPS 2-04 Rocket1 3.1 22:15:11 10° W 22:18:38 37° SSW 22:18:45 37° S
ATLAS 5 CENTAUR R/B 2.4 22:13:19 10° NNW 22:19:25 82° ENE 22:22:52 30° SE
Lacrosse 5 rocket 3.7 22:16:52 10° W 22:19:45 22° NW 22:22:40 10° NNE
Cosmos 1674 Rocket 4.2 22:16:27 10° N 22:20:28 37° ENE 22:21:11 34° ESE
ERS-1 Rocket 3.5 22:23:37 20° S 22:27:01 56° W 22:31:59 10° NNW
OAO 3 Copernicus 4.4 22:24:21 10° WSW 22:29:14 53° S 22:30:29 42° SE
Cosmos 1656 Rocket 3.5 22:25:33 18° S 22:29:36 68° ESE 22:35:05 10° NNE
BREEZE-M DEB (TANK) 4.0 22:27:30 10° NW 22:31:05 57° NE 22:40:24 18° ESE
ARGOS 3.2 22:28:52 29° S 22:31:43 80° WSW 22:37:06 10° NNW
Cosmos 1408 4.4 22:28:50 10° SW 22:32:10 31° WNW 22:35:31 10° NNW
H-2A R/B 3.8 22:33:43 17° ENE 22:33:46 17° ENE 22:36:28 10° NNE
Nadezhda 4 Rocket 3.9 22:30:13 24° S 22:34:10 78° E 22:40:20 10° N
Cosmos 1092 Rocket 4.1 22:31:56 34° SSE 22:34:22 53° E 22:40:19 10° NNE
Meteor 1-27 Rocket 3.7 22:28:51 10° N 22:34:37 85° W 22:37:24 32° S
Okean 3 4.4 22:31:50 10° NNE 22:35:35 32° ENE 22:35:35 32° ENE
ISS -0.6 22:34:26 10° WNW 22:36:23 15° NNW 22:38:21 10° NNE
Terra 2.6 22:37:35 33° E 22:38:18 35° ENE 22:42:36 10° N
USA 215 3.2 22:37:58 34° SE 22:41:08 85° NE 22:47:44 10° NW
YAOGAN 11 4.2 22:40:30 43° S 22:41:56 76° WSW 22:46:28 10° NNW
Tiangong 2 3.9 22:40:59 10° WSW 22:41:25 11° SW 22:41:25 11° SW
Cosmos 1908 Rocket 3.6 22:55:36 64° E 22:55:36 64° E 22:59:59 10° NNE
Cosmos 1437 3.9 22:53:59 10° N 22:56:09 39° N 22:56:09 39° N
Intercosmos 25 Rocket 4.1 22:51:26 10° N 22:58:15 76° W 22:59:26 51° SSW
SPOT 5 3.7 22:56:52 32° SSW 22:59:05 51° W 23:04:15 10° NNW
Milstar 3 3.5 22:55:08 10° WSW 23:04:40 40° S 23:05:32 39° SSE
Cosmos 2251 Rocket 3.4 23:01:49 10° NNW 23:07:05 74° ENE 23:07:41 66° ESE
CENTAUR R/B 4.3 23:01:57 10° WSW 23:07:25 32° NW 23:13:33 10° NNE
Okean 2 Rocket 4.5 23:08:46 26° ENE 23:08:46 26° ENE 23:11:22 10° NNE
Cosmos 2227 Rocket 3.7 23:04:19 10° N 23:08:46 23° NE 23:10:00 22° ENE
DMSP B5D2-2 4.1 23:04:19 10° N 23:09:32 78° WNW 23:11:06 46° SSW
SPOT 1/Viking Rocket 4.1 23:10:32 40° SSW 23:11:57 52° W 23:17:03 10° NNW
Cosmos 2219 3.1 23:10:39 10° NNW 23:16:25 74° ENE 23:17:12 64° ESE
Spot 4 4.5 23:17:07 42° ENE 23:17:07 42° ENE 23:21:31 10° N
Cosmos 1943 Rocket 4.5 23:12:46 10° WSW 23:17:04 22° NW 23:21:22 10° N
Meteor 1-14 Rocket 4.2 23:17:48 60° S 23:18:56 84° E 23:24:46 10° N
deb Chang Zheng 4 4.5 23:16:40 10° NNE 23:19:47 40° NE 23:19:47 40° NE
CZ-4 R/B 4.4 23:16:54 10° NNE 23:20:28 45° ENE 23:20:28 45° ENE
Cosmos 1812 3.7 23:17:50 10° N 23:20:33 41° NNE 23:20:33 41° NNE
Cosmos 1782 Rocket 4.0 23:23:54 55° NNE 23:23:54 55° NNE 23:27:27 10° N
Cosmos 2195 Rocket 4.4 23:21:49 53° S 23:23:27 90° W 23:29:49 10° N
SME Rocket 4.4 23:22:43 52° SE 23:24:31 73° ENE 23:33:57 10° NNW
GEOS 3 Rocket 3.5 23:30:20 77° E 23:30:35 80° NE 23:35:50 10° NNW
Lacrosse 4 Rocket 3.5 23:27:32 10° WNW 23:30:45 20° WSW 23:30:55 20° WSW
Sich 1 Rocket 4.2 23:34:14 50° W 23:34:17 50° W 23:38:36 10° N
SL-19 R/B 4.4 23:30:17 10° NNE 23:36:24 87° WNW 23:37:41 60° SSW
ATLAS CENTAUR R/B 2.5 23:39:00 40° NW 23:39:00 40° NW 23:42:18 10° NNE
Gbstr 26 Del rocket 4.5 23:35:45 10° NW 23:39:30 28° NNE 23:39:33 28° NNE
Cosmos 1655 Rocket 3.8 23:42:10 73° S 23:42:49 86° E 23:49:05 10° N
Cosmos 405 Rocket 4.3 23:39:48 10° N 23:41:56 33° NNW 23:41:56 33° NNW
Cosmos 1975 Rocket 3.7 23:41:48 10° N 23:45:23 56° NNW 23:45:23 56° NNW
Cosmos 1867 4.3 23:47:06 10° NW 23:51:55 43° WSW 23:51:55 43° WSW
Cosmos 2026 Rocket 4.3 23:51:36 50° SW 23:52:55 60° W 23:59:06 10° N
H-2A R/B 3.9 23:51:43 19° WSW 23:53:07 21° W 23:57:09 10° NW
Meteor 1-18 Rocket 4.2 23:47:36 10° NNW 23:53:21 74° W 23:53:31 73° WSW
